Wind_Speed
23 19 19 2 3 4 2 4 5 6 5 6 8 8 8 9 8 8 9 8 10 9 7 2 1 4 7 10 11 10 8 6 6 6 7 8 8 10 11 10 8 7 8
23 22 12 5 1 2 2 2 4 6 5 5 7 7 6 6 7 7 8 12 14 11 8 7 6 7 9 10 12 12 11 8 6 6 6 7 9 11 13 15 13 11 11
22 18 16 8 6 4 4 3 6 5 6 8 9 9 10 8 8 8 9 9 15 15 14 14 12 11 13 12 12 11 9 9 10 11 13 13 13 13 12 12 14 16 18
24 22 17 12 10 8 9 8 7 7 7 6 8 10 12 8 7 7 8 9 10 10 12 14 13 13 14 13 11 10 9 11 12 13 13 14 14 15 17 19 20 21 22
23 21 22 12 11 11 12 13 11 9 7 7 8 12 12 9 8 8 9 8 8 9 11 12 13 12 12 11 11 11 12 13 15 15 16 17 17 19 20 21 23 24 27
22 22 20 16 20 17 16 16 15 12 9 9 10 11 12 12 12 11 11 11 10 10 10 10 11 12 11 12 13 15 15 14 15 16 18 20 23 25 26 27 28 29 30
24 23 24 20 22 22 20 19 19 16 15 15 14 13 11 11 12 14 14 13 12 11 11 11 10 11 12 13 15 16 17 18 19 22 24 26 28 29 30 31 32 33 34
25 26 26 26 28 29 19 20 22 21 19 19 17 16 13 12 12 11 10 9 9 9 10 12 14 14 15 16 16 18 21 23 25 25 25 25 27 30 32 34 34 34 36
25 27 28 27 28 20 21 27 30 25 21 19 17 16 15 15 13 11 10 10 12 13 14 14 15 16 18 20 20 21 21 22 23 26 28 29 30 32 33 35 35 35 36
25 26 27 26 28 22 18 21 17 20 20 16 16 16 16 17 15 14 13 12 13 15 17 17 18 19 20 22 22 23 25 27 27 28 29 30 33 35 36 36 37 36 35
25 26 27 27 24 13 11 14 27 20 26 21 22 18 17 17 16 15 15 13 14 15 15 17 19 21 22 24 25 26 28 29 30 31 32 32 32 35 36 36 36 34 34
24 28 27 28 23 24 23 10 9 19 22 27 19 18 18 18 17 16 16 15 16 18 20 20 22 24 25 26 27 28 29 30 30 31 33 32 34 36 37 36 35 35 34
26 28 28 28 26 22 19 15 9 14 13 13 16 13 15 18 20 17 17 18 19 21 23 24 25 26 27 29 29 31 32 33 34 33 32 35 37 36 34 33 34 34 32
25 26 26 24 20 19 19 19 18 13 9 11 8 8 16 20 18 18 20 23 23 24 26 27 27 27 27 29 32 34 34 34 33 32 36 38 35 34 34 34 33 30 32
25 24 23 21 16 18 18 18 14 14 16 16 9 12 16 19 24 24 25 26 26 27 28 28 28 28 29 31 34 35 33 33 35 37 38 35 33 34 34 32 31 32 34
27 24 22 22 20 19 21 21 19 20 20 20 19 19 20 22 25 28 29 30 30 30 30 29 30 30 31 33 35 35 34 35 36 38 35 34 34 35 33 31 32 33 34
27 25 23 22 23 23 22 24 24 24 23 23 23 24 26 27 27 28 30 31 31 32 31 31 31 34 34 36 37 35 33 37 37 35 34 35 35 34 31 31 33 33 36
25 25 25 24 23 25 24 25 26 26 26 27 27 28 29 31 31 31 31 32 32 33 34 36 37 38 37 39 39 36 36 37 36 36 35 35 33 31 32 33 33 35 37
28 29 26 25 24 25 27 31 31 29 30 29 30 32 34 35 36 36 37 37 37 38 39 40 41 40 39 40 39 37 37 36 38 37 36 34 31 32 33 32 34 36 37
30 31 31 31 31 31 31 32 33 34 35 36 37 38 37 39 39 38 39 40 40 41 42 43 42 40 39 38 36 37 38 41 40 37 35 33 32 34 33 34 36 37 37
33 34 35 36 38 40 39 38 38 38 39 40 41 42 41 41 42 42 43 43 43 44 43 43 41 39 37 34 35 37 39 41 41 38 35 34 34 34 34 35 37 37 37
39 41 41 41 43 45 43 43 43 44 44 45 44 44 41 40 44 44 45 45 43 42 41 41 36 37 35 35 36 37 39 39 36 36 36 35 34 35 35 37 38 38 38
41 43 44 44 45 46 47 45 45 46 46 46 45 43 36 35 38 42 43 40 38 39 40 37 42 38 37 37 39 37 36 36 35 36 36 34 36 37 37 37 38 39 40
42 45 44 44 44 45 45 45 45 47 48 46 45 42 36 39 35 35 34 31 35 39 38 39 40 38 42 40 37 39 40 38 37 36 35 35 38 39 39 39 40 41 41
42 38 41 40 39 42 41 39 37 36 38 38 39 32 39 36 34 27 35 36 38 37 33 37 36 38 41 37 37 41 39 39 38 37 37 38 39 40 41 41 41 42 44
41 37 37 40 37 37 39 42 40 37 35 32 33 35 39 42 41 38 33 32 36 39 43 46 46 44 42 43 43 42 41 37 35 37 39 40 42 43 44 43 43 44 45
Wind_Direction
5 2 351 350 121 167 200 209 222 227 219 220 223 218 223 215 220 229 225 202 188 187 183 179 343 346 351 346 346 349 351 344 339 337 342 339 338 334 334 326 321 307 296
347 8 2 333 173 144 214 239 255 238 233 255 246 227 222 228 230 232 227 215 208 217 235 252 268 296 312 313 320 322 319 318 315 310 308 307 308 310 313 316 321 318 310
346 349 2 325 308 302 293 270 261 254 238 234 240 240 236 232 239 239 238 227 229 239 252 260 271 284 291 299 303 303 297 299 308 315 316 317 314 316 313 307 308 310 310
349 340 348 329 299 297 291 272 253 253 254 254 252 254 249 236 239 248 242 235 236 242 254 264 276 287 290 295 297 300 302 306 308 309 308 308 306 305 305 307 309 306 304
348 336 342 314 299 291 277 269 259 266 279 273 273 258 248 242 240 240 246 242 242 249 257 269 280 285 292 301 301 302 302 302 304 304 303 303 305 307 306 305 302 304 303
330 340 323 314 302 296 280 269 265 261 262 271 258 257 255 245 242 247 248 250 255 264 266 273 281 288 299 304 302 302 302 304 305 305 306 307 306 303 303 304 305 304 302
321 321 325 300 300 288 275 262 259 257 258 262 259 258 255 249 243 246 251 255 261 266 271 276 283 292 297 301 305 306 305 307 306 306 307 309 309 309 306 303 304 304 303
313 313 321 307 302 298 252 255 254 248 249 252 261 251 244 244 239 240 246 258 265 272 281 287 289 294 299 301 299 297 297 300 301 303 304 304 303 301 301 301 301 300 300
312 310 322 314 315 295 255 257 264 243 245 256 258 244 239 238 237 237 251 264 270 273 277 282 290 295 297 295 297 299 300 298 299 300 300 301 301 301 302 303 303 305 305
313 313 329 327 319 282 256 252 250 238 233 245 248 239 233 238 246 256 258 261 267 273 279 285 287 289 291 293 294 295 296 300 302 303 305 306 308 307 309 308 307 306 304
310 309 319 334 326 302 283 297 244 222 226 214 224 224 241 247 251 262 266 265 273 282 291 294 293 295 294 295 298 300 301 303 306 310 310 309 307 306 307 307 307 308 307
308 306 311 319 319 306 308 282 241 205 229 214 210 228 236 251 256 264 267 273 278 283 286 287 291 294 297 299 300 302 304 305 306 306 307 307 309 309 308 308 307 306 306
308 306 313 312 316 317 300 267 257 229 215 219 231 245 259 269 255 257 272 278 282 285 286 289 292 296 299 301 301 303 305 306 306 306 306 306 307 307 304 303 303 302 303
300 302 310 310 307 307 290 272 277 277 273 232 258 267 269 268 278 271 280 285 286 288 290 291 293 296 298 300 303 305 305 304 304 304 306 306 305 304 302 302 302 303 306
294 297 306 304 303 292 292 293 295 301 311 315 305 294 277 276 285 283 284 287 289 290 289 289 291 295 299 303 305 304 302 300 301 303 303 301 300 300 300 299 301 304 305
292 293 298 308 303 293 285 279 281 279 281 284 286 280 275 271 273 281 285 286 286 286 287 291 293 296 301 303 302 301 298 297 300 299 299 299 298 298 299 300 301 303 304
283 280 281 291 295 288 276 270 275 278 279 280 281 282 284 284 285 283 284 285 286 287 287 288 291 299 303 302 298 294 291 293 295 293 295 294 296 297 297 299 302 304 306
285 281 277 281 282 280 281 278 275 277 278 280 283 285 287 286 287 288 287 285 284 285 286 290 295 297 298 295 293 290 289 293 291 293 292 293 293 294 298 300 301 303 304
284 285 281 280 281 281 283 284 285 282 278 277 279 281 286 288 287 286 286 286 286 286 287 289 291 292 292 290 289 288 290 292 292 292 292 291 291 295 296 297 300 303 303
282 285 286 286 286 284 282 282 283 283 280 277 278 279 279 279 282 283 283 283 282 282 282 283 286 287 286 286 288 291 294 293 290 287 286 285 289 295 296 299 301 302 304
287 288 289 291 291 289 288 287 285 282 281 279 278 279 279 280 280 279 278 278 277 279 281 282 284 284 284 285 289 292 292 290 289 287 287 287 291 293 295 296 297 297 300
286 288 288 288 287 287 286 286 285 285 284 285 284 280 277 274 276 276 275 274 276 277 280 284 285 284 282 282 287 290 288 288 286 285 285 288 287 289 293 294 296 299 303
284 283 284 284 284 284 285 285 284 284 282 281 281 282 283 275 272 272 274 274 275 279 283 279 278 278 283 280 283 285 283 282 279 280 286 286 288 290 293 297 299 300 303
287 286 286 286 288 288 287 287 287 285 285 284 284 283 277 281 283 279 263 267 281 282 281 274 274 281 278 277 283 287 285 280 277 283 285 287 289 290 293 295 297 299 300
285 288 289 292 292 292 292 290 289 289 291 289 287 279 273 276 272 270 279 280 276 279 279 279 279 277 277 278 283 282 281 276 280 285 286 288 288 289 292 294 295 296 297
286 286 282 285 286 286 288 287 285 288 288 287 278 273 272 274 278 276 281 284 284 282 287 291 288 285 283 282 282 281 276 271 275 279 283 285 286 289 290 291 292 294 295
Height
5867 5862 5860 5860 5859 5861 5861 5862 5863 5865 5867 5867 5868 5868 5868 5869 5870 5870 5870 5868 5869 5871 5873 5873 5873 5873 5871 5870 5869 5867 5866 5864 5863 5863 5863 5862 5861 5860 5859 5859 5859 5858 5858
5868 5864 5862 5862 5860 5861 5861 5861 5862 5863 5864 5865 5866 5866 5867 5868 5868 5868 5868 5867 5868 5870 5871 5871 5870 5870 5870 5869 5868 5866 5865 5863 5862 5861 5861 5860 5859 5858 5857 5856 5855 5854 5854
5869 5867 5864 5863 5862 5860 5860 5859 5861 5862 5863 5864 5865 5864 5865 5866 5866 5866 5866 5866 5867 5867 5868 5869 5868 5867 5866 5865 5865 5864 5863 5863 5862 5861 5859 5858 5857 5855 5855 5853 5852 5850 5849
5868 5865 5862 5862 5862 5859 5859 5859 5859 5860 5860 5860 5861 5862 5864 5863 5863 5863 5863 5863 5863 5863 5865 5865 5863 5862 5862 5861 5860 5859 5859 5859 5859 5858 5856 5855 5854 5852 5851 5850 5848 5846 5845
5868 5864 5861 5861 5861 5858 5858 5858 5857 5857 5856 5856 5857 5858 5860 5860 5859 5860 5860 5860 5860 5860 5860 5860 5859 5859 5858 5857 5857 5856 5855 5855 5855 5854 5853 5852 5850 5849 5847 5845 5843 5841 5839
5867 5863 5860 5858 5856 5854 5853 5853 5854 5854 5854 5853 5855 5856 5855 5855 5856 5857 5857 5856 5856 5856 5855 5855 5855 5855 5855 5854 5853 5853 5852 5851 5850 5849 5848 5847 5846 5844 5842 5839 5837 5834 5832
5861 5858 5855 5852 5849 5846 5847 5847 5849 5850 5849 5849 5850 5851 5851 5851 5851 5852 5853 5852 5852 5852 5851 5851 5851 5851 5851 5851 5850 5849 5848 5846 5846 5845 5843 5840 5838 5836 5834 5831 5829 5826 5822
5856 5853 5850 5845 5842 5837 5836 5838 5840 5842 5842 5844 5845 5845 5845 5847 5847 5848 5848 5848 5848 5848 5847 5848 5847 5846 5846 5846 5845 5844 5843 5841 5840 5837 5835 5833 5831 5828 5825 5822 5820 5817 5813
5851 5848 5845 5840 5838 5835 5837 5834 5834 5837 5839 5840 5840 5840 5841 5842 5843 5842 5843 5843 5843 5844 5843 5842 5842 5842 5841 5841 5839 5838 5836 5834 5832 5831 5829 5826 5823 5820 5817 5814 5810 5808 5804
5847 5843 5840 5836 5832 5831 5832 5806 5825 5829 5829 5831 5834 5836 5836 5837 5838 5838 5838 5838 5838 5837 5836 5836 5836 5836 5835 5834 5833 5832 5830 5828 5826 5823 5820 5817 5813 5810 5807 5804 5801 5797 5793
5841 5839 5836 5833 5830 5827 5826 5823 5822 5818 5822 5823 5825 5828 5831 5832 5833 5833 5833 5833 5832 5831 5830 5830 5830 5829 5830 5829 5826 5824 5821 5819 5816 5814 5811 5808 5804 5800 5798 5795 5791 5787 5783
5837 5834 5832 5830 5828 5825 5820 5821 5819 5818 5818 5817 5819 5821 5824 5826 5826 5828 5828 5827 5826 5825 5825 5825 5824 5823 5821 5820 5818 5815 5813 5811 5809 5805 5803 5799 5795 5792 5787 5783 5780 5776 5772
5833 5830 5826 5823 5821 5817 5817 5817 5815 5814 5814 5815 5816 5817 5819 5820 5820 5821 5821 5821 5821 5820 5819 5818 5816 5814 5812 5810 5807 5805 5803 5801 5799 5796 5793 5789 5786 5782 5779 5776 5772 5768 5764
5827 5825 5822 5818 5816 5815 5814 5812 5811 5811 5811 5811 5811 5813 5815 5815 5814 5815 5815 5814 5813 5812 5811 5809 5808 5806 5804 5801 5799 5796 5793 5791 5788 5786 5783 5780 5776 5773 5769 5765 5762 5758 5755
5821 5819 5818 5815 5812 5810 5810 5810 5809 5808 5808 5808 5807 5811 5812 5811 5807 5809 5808 5806 5804 5803 5802 5800 5799 5797 5795 5792 5789 5787 5785 5782 5779 5776 5773 5770 5767 5763 5760 5756 5753 5750 5747
5814 5812 5811 5809 5807 5807 5806 5805 5805 5805 5804 5805 5805 5805 5805 5805 5804 5800 5799 5797 5796 5795 5793 5791 5790 5788 5786 5783 5780 5777 5775 5772 5770 5766 5762 5760 5757 5753 5750 5746 5743 5740 5736
5806 5805 5805 5804 5802 5800 5800 5799 5799 5798 5798 5798 5797 5796 5796 5795 5793 5793 5790 5788 5786 5785 5783 5781 5780 5778 5775 5773 5771 5769 5765 5762 5760 5756 5753 5749 5747 5743 5741 5737 5734 5731 5727
5797 5797 5796 5796 5796 5794 5793 5793 5791 5790 5790 5789 5787 5786 5786 5785 5783 5780 5780 5779 5777 5775 5773 5769 5768 5766 5764 5761 5760 5758 5755 5752 5748 5745 5742 5739 5736 5733 5730 5727 5724 5721 5718
5788 5788 5787 5787 5786 5786 5785 5783 5782 5780 5780 5780 5778 5777 5775 5773 5771 5770 5769 5767 5765 5763 5760 5758 5756 5754 5752 5749 5747 5745 5743 5740 5736 5733 5730 5728 5725 5722 5719 5716 5714 5711 5708
5779 5779 5778 5777 5775 5775 5775 5774 5772 5770 5769 5768 5767 5765 5764 5762 5760 5758 5756 5754 5752 5750 5748 5746 5743 5742 5739 5737 5734 5732 5730 5728 5725 5723 5721 5718 5716 5712 5710 5707 5704 5700 5697
5768 5768 5768 5765 5763 5762 5762 5761 5759 5758 5757 5756 5753 5750 5749 5747 5745 5744 5742 5740 5739 5736 5734 5731 5730 5729 5726 5724 5722 5720 5716 5713 5712 5711 5707 5706 5704 5701 5699 5698 5695 5691 5688
5759 5758 5756 5755 5751 5748 5748 5746 5744 5742 5740 5739 5737 5735 5735 5734 5731 5729 5727 5725 5723 5720 5718 5717 5717 5715 5715 5714 5711 5707 5704 5703 5701 5699 5697 5696 5694 5692 5690 5688 5684 5681 5677
5749 5746 5744 5742 5740 5737 5733 5732 5729 5727 5726 5725 5723 5720 5720 5718 5717 5714 5712 5710 5708 5707 5706 5704 5704 5704 5703 5702 5700 5696 5694 5692 5690 5687 5687 5685 5682 5681 5678 5676 5673 5669 5666
5734 5730 5729 5727 5724 5722 5719 5716 5714 5711 5708 5708 5706 5705 5704 5701 5700 5699 5700 5700 5698 5695 5694 5691 5688 5689 5689 5688 5687 5684 5681 5678 5676 5676 5675 5673 5672 5669 5667 5664 5661 5657 5654
5721 5719 5714 5711 5709 5705 5703 5700 5698 5697 5696 5695 5694 5693 5691 5689 5688 5686 5686 5686 5685 5685 5682 5681 5679 5677 5677 5676 5673 5670 5667 5664 5663 5662 5661 5661 5659 5656 5653 5651 5648 5644 5641
5706 5705 5703 5701 5699 5694 5690 5689 5686 5684 5683 5682 5680 5680 5678 5678 5678 5676 5675 5673 5671 5670 5669 5667 5667 5665 5663 5662 5659 5657 5654 5653 5652 5650 5648 5647 5645 5642 5640 5637 5634 5631 5628